datetime,unregulated inflow
1970-12-02,514.639174
1970-12-03,771.298457
1970-12-04,829.365424
1970-12-05,806.20476
1970-12-06,664.766468
1970-12-07,710.821804
1970-12-08,875.463532
1970-12-09,644.995577
1970-12-10,558.815946
1970-12-11,971.983695
1970-12-12,519.050266
1970-12-13,412.421284
1970-12-14,711.523957
1970-12-15,783.283501
1970-12-16,576.461975
1970-12-17,157.604377
1970-12-18,718.775728
1970-12-19,649.434548
1970-12-20,832.740733
1970-12-21,508.446265
1970-12-22,772.692055
1970-12-23,899.00226
1970-12-24,532.691454
1970-12-25,677.618173
1970-12-26,359.733986
1970-12-27,696.393593
1970-12-28,622.244733
1970-12-29,415.808041
1970-12-30,571.810801
1970-12-31,807.071789
1971-01-01,541.236937
1971-01-02,554.233146
1971-01-03,615.018504
1971-01-04,490.585509
1971-01-05,484.971482
1971-01-06,412.493044
1971-01-07,208.933895
1971-01-08,507.673029
1971-01-09,481.813545
1971-01-10,607.526405
1971-01-11,757.048723
1971-01-12,571.243736
1971-01-13,477.934561
1971-01-14,658.111735
1971-01-15,566.809504
1971-01-16,541.235214
1971-01-17,556.796447
1971-01-18,877.936917
1971-01-19,1011.18089
1971-01-20,1023.4696
1971-01-21,891.594353
1971-01-22,840.06014
1971-01-23,681.539991
1971-01-24,702.615673
1971-01-25,603.487653
1971-01-26,674.656438
1971-01-27,677.084588
1971-01-28,651.349053
1971-01-29,541.740243
1971-01-30,654.328267
1971-01-31,598.028223
1971-02-01,943.618947
1971-02-02,858.050384
1971-02-03,742.260112
1971-02-04,717.339664
1971-02-05,960.935163
1971-02-06,807.691043
1971-02-07,19.6868844
1971-02-08,705.656061
1971-02-09,774.069652
1971-02-10,696.131539
1971-02-11,418.968439
1971-02-12,848.68046
1971-02-13,777.732495
1971-02-14,731.964815
1971-02-15,683.803081
1971-02-16,667.556742
1971-02-17,603.988127
1971-02-18,868.972936
1971-02-19,766.466036
1971-02-20,741.140014
1971-02-21,599.998118
1971-02-22,533.026622
1971-02-23,756.414945
1971-02-24,317.451164
1971-02-25,1256.62825
1971-02-26,137.821238
1971-02-27,495.260624
1971-02-28,454.267268
1971-03-01,477.788333
1971-03-02,463.381662
1971-03-03,230.350653
1971-03-04,956.236661
1971-03-05,737.604937
1971-03-06,500.257244
1971-03-07,632.185784
1971-03-08,557.46789
1971-03-09,662.350873
1971-03-10,815.039868
1971-03-11,387.758582
1971-03-12,914.813976
1971-03-13,1040.74642
1971-03-14,736.324826
1971-03-15,430.380633
1971-03-16,597.184827
1971-03-17,790.735966
1971-03-18,724.705844
1971-03-19,821.282381
1971-03-20,772.183703
1971-03-21,1134.07763
1971-03-22,1219.78245
1971-03-23,1709.88644
1971-03-24,1901.57317
1971-03-25,1458.3977
1971-03-26,2010.05684
1971-03-27,2719.10507
1971-03-28,2456.53081
1971-03-29,1775.73009
1971-03-30,1971.90385
1971-03-31,1961.36066
1971-04-01,1882.48757
1971-04-02,1316.65489
1971-04-03,1653.02057
1971-04-04,1488.66249
1971-04-05,1537.25085
1971-04-06,1088.18083
1971-04-07,1728.09984
1971-04-08,1711.55785
1971-04-09,1853.37008
1971-04-10,2015.19156
1971-04-11,2724.59897
1971-04-12,2277.70613
1971-04-13,3098.76227
1971-04-14,3521.2392
1971-04-15,2958.00564
1971-04-16,3249.77014
1971-04-17,3233.71508
1971-04-18,2917.39238
1971-04-19,2521.4337
1971-04-20,1930.33125
1971-04-21,2437.10807
1971-04-22,2449.26421
1971-04-23,1809.82229
1971-04-24,1961.42774
1971-04-25,1806.16782
1971-04-26,1882.39082
1971-04-27,1678.10361
1971-04-28,1680.09369
1971-04-29,1486.48729
1971-04-30,1529.74115
1971-05-01,1668.18472
1971-05-02,1617.5904
1971-05-03,2090.28672
1971-05-04,2450.52364
1971-05-05,2527.42117
1971-05-06,2398.56859
1971-05-07,2274.89062
1971-05-08,2481.09049
1971-05-09,2357.93416
1971-05-10,2252.1775
1971-05-11,2341.06155
1971-05-12,2178.24048
1971-05-13,2469.10299
1971-05-14,2769.74801
1971-05-15,2967.42603
1971-05-16,3310.71551
1971-05-17,3657.30324
1971-05-18,3574.66835
1971-05-19,3215.28713
1971-05-20,2893.8462
1971-05-21,2746.05708
1971-05-22,2454.32951
1971-05-23,2658.12278
1971-05-24,2556.41816
1971-05-25,2457.06452
1971-05-26,2767.86107
1971-05-27,2737.94044
1971-05-28,4385.46415
1971-05-29,4563.8152
1971-05-30,4590.73841
1971-05-31,3868.85816
1971-06-01,3624.4893
1971-06-02,3474.60868
1971-06-03,3702.29793
1971-06-04,3294.66389
1971-06-05,4913.78735
1971-06-06,4037.17683
1971-06-07,4521.10822
1971-06-08,4834.07333
1971-06-09,5083.56165
1971-06-10,5122.35641
1971-06-11,4677.73479
1971-06-12,4773.42361
1971-06-13,4210.95443
1971-06-14,4889.01965
1971-06-15,5493.76896
1971-06-16,5960.75266
1971-06-17,6693.43286
1971-06-18,6947.44785
1971-06-19,6482.49509
1971-06-20,7018.47336
1971-06-21,6799.31039
1971-06-22,6485.22173
1971-06-23,6895.90908
1971-06-24,6302.60348
1971-06-25,6065.64401
1971-06-26,5729.94362
1971-06-27,5496.3405
1971-06-28,5095.86451
1971-06-29,4370.72613
1971-06-30,3988.43904
1971-07-01,3420.02841
1971-07-02,3262.73767
1971-07-03,3380.89024
1971-07-04,3140.95647
1971-07-05,2849.67866
1971-07-06,2872.9602
1971-07-07,3063.93856
1971-07-08,2904.13387
1971-07-09,2756.98825
1971-07-10,2683.02439
1971-07-11,2307.43327
1971-07-12,2181.1419
1971-07-13,2118.47945
1971-07-14,2059.99239
1971-07-15,1937.9985
1971-07-16,1831.71478
1971-07-17,1732.67452
1971-07-18,1852.93891
1971-07-19,2058.30486
1971-07-20,2099.42426
1971-07-21,2226.68113
1971-07-22,2298.13351
1971-07-23,2517.49662
1971-07-24,2171.10041
1971-07-25,2228.51686
1971-07-26,1846.05191
1971-07-27,1672.92864
1971-07-28,1569.0919
1971-07-29,1423.50359
1971-07-30,1305.51374
1971-07-31,1281.76521
1971-08-01,1191.42921
1971-08-02,1254.71005
1971-08-03,1176.27811
1971-08-04,1294.80265
1971-08-05,1128.7584
1971-08-06,1237.80322
1971-08-07,1103.38117
1971-08-08,1127.18719
1971-08-09,979.973622
1971-08-10,1260.1168
1971-08-11,701.273033
1971-08-12,837.462498
1971-08-13,918.514113
1971-08-14,1247.44419
1971-08-15,791.987829
1971-08-16,992.916841
1971-08-17,720.701926
1971-08-18,1128.76874
1971-08-19,914.827761
1971-08-20,1215.71194
1971-08-21,1552.97308
1971-08-22,1173.26541
1971-08-23,985.396371
1971-08-24,1077.38691
1971-08-25,1231.17372
1971-08-26,1119.6365
1971-08-27,1464.05567
1971-08-28,1484.27183
1971-08-29,1375.42604
1971-08-30,1412.62682
1971-08-31,1286.80183
1971-09-01,1305.95033
1971-09-02,1108.93119
1971-09-03,1178.34143
1971-09-04,1007.47411
1971-09-05,1221.29114
1971-09-06,933.600658
1971-09-07,1028.00051
1971-09-08,869.772944
1971-09-09,1333.3537
1971-09-10,813.248019
1971-09-11,966.078565
1971-09-12,848.196726
1971-09-13,788.903068
1971-09-14,780.707646
1971-09-15,734.415121
1971-09-16,662.019029
1971-09-17,824.539403
1971-09-18,575.792809
1971-09-19,667.9505
1971-09-20,689.371443
1971-09-21,713.449787
1971-09-22,818.125614
1971-09-23,763.392353
1971-09-24,820.619123
1971-09-25,731.997618
1971-09-26,579.043246
1971-09-27,547.679345
1971-09-28,742.109883
1971-09-29,700.363785
1971-09-30,813.54226
1971-10-01,894.678929
1971-10-02,842.411668
1971-10-03,738.326846
1971-10-04,732.012265
1971-10-05,679.769252
1971-10-06,1133.81816
1971-10-07,671.820191
1971-10-08,735.186511
1971-10-09,640.777178
1971-10-10,829.250952
1971-10-11,640.193312
1971-10-12,667.220098
1971-10-13,844.261921
1971-10-14,459.854463
1971-10-15,925.603593
1971-10-16,748.989744
1971-10-17,993.657091
1971-10-18,981.567053
1971-10-19,775.832575
1971-10-20,656.165658
1971-10-21,625.179389
1971-10-22,1115.42924
1971-10-23,474.381205
1971-10-24,892.719435
1971-10-25,611.087207
1971-10-26,833.299674
1971-10-27,797.215915
1971-10-28,736.090836
1971-10-29,713.883978
1971-10-30,689.894011
1971-10-31,655.56259
1971-11-01,788.076288
1971-11-02,747.900296
1971-11-03,610.446782
1971-11-04,726.142154
1971-11-05,632.665641
1971-11-06,754.693134
1971-11-07,710.695331
1971-11-08,852.929261
1971-11-09,604.415549
1971-11-10,850.398948
1971-11-11,606.332947
1971-11-12,770.904084
1971-11-13,739.027584
1971-11-14,674.493162
1971-11-15,616.767456
1971-11-16,696.500679
1971-11-17,599.905002
1971-11-18,655.267672
1971-11-19,1066.91166
1971-11-20,650.997515
1971-11-21,188.53144
1971-11-22,454.8043
1971-11-23,631.173573
1971-11-24,494.296232
1971-11-25,593.755113
1971-11-26,619.267489
1971-11-27,646.11592
1971-11-28,869.303365
1971-11-29,518.489663
1971-11-30,583.521236
1971-12-01,555.212739
1971-12-02,539.7453
1971-12-03,604.873127
1971-12-04,514.304868
1971-12-05,471.658999
1971-12-06,637.624473
1971-12-07,664.035205
1971-12-08,560.47689
1971-12-09,376.067778
1971-12-10,833.785563
1971-12-11,454.451715
1971-12-12,594.328086
1971-12-13,446.102741
1971-12-14,729.766716
1971-12-15,647.734585
1971-12-16,504.510784
1971-12-17,657.36287
1971-12-18,425.733582
1971-12-19,498.887617
1971-12-20,313.514575
1971-12-21,447.181112
1971-12-22,639.185286
1971-12-23,663.502789
1971-12-24,724.752556
1971-12-25,598.851557
1971-12-26,775.267541
1971-12-27,590.758667
1971-12-28,490.592525
1971-12-29,550.08977
1971-12-30,645.58449
1971-12-31,403.222206
1972-01-01,397.051453
1972-01-02,452.332053
1972-01-03,684.93081
1972-01-04,599.761544
1972-01-05,611.232451
1972-01-06,470.05252
1972-01-07,597.729982
1972-01-08,395.195353
1972-01-09,656.102575
1972-01-10,462.438688
1972-01-11,605.836411
1972-01-12,704.476082
1972-01-13,528.890077
1972-01-14,534.032371
1972-01-15,338.038558
1972-01-16,544.460295
1972-01-17,595.020638
1972-01-18,409.438747
1972-01-19,751.136701
1972-01-20,532.101618
1972-01-21,549.029124
1972-01-22,552.554108
1972-01-23,579.362413
1972-01-24,647.700366
1972-01-25,457.456346
1972-01-26,507.875385
1972-01-27,513.180339
1972-01-28,515.706467
1972-01-29,552.17826
1972-01-30,481.880905
1972-01-31,493.662146
1972-02-01,528.066559
1972-02-02,501.082547
1972-02-03,504.8782
1972-02-04,426.369391
1972-02-05,578.603639
1972-02-06,332.858906
1972-02-07,635.13878
1972-02-08,504.013448
1972-02-09,471.725404
1972-02-10,538.592399
1972-02-11,215.460802
1972-02-12,737.373471
1972-02-13,395.502702
1972-02-14,660.225827
1972-02-15,562.614677
1972-02-16,360.553996
1972-02-17,423.067873
1972-02-18,276.314226
1972-02-19,702.898037
1972-02-20,177.103245
1972-02-21,713.931305
1972-02-22,596.458733
1972-02-23,579.272866
1972-02-24,646.836537
1972-02-25,515.233564
1972-02-26,523.449172
1972-02-27,718.307379
1972-02-28,355.660647
1972-02-29,799.495621
1972-03-01,610.586302
1972-03-02,630.62134
1972-03-03,647.450806
1972-03-04,626.01023
1972-03-05,835.241012
1972-03-06,826.212041
1972-03-07,1112.97339
1972-03-08,962.374734
1972-03-09,972.059147
1972-03-10,998.789292
1972-03-11,1276.1934
1972-03-12,1244.60652
1972-03-13,1207.30063
1972-03-14,1231.66226
1972-03-15,989.136081
1972-03-16,1024.64847
1972-03-17,1028.22306
1972-03-18,1131.3841
1972-03-19,1290.1375
1972-03-20,1069.9326
1972-03-21,1076.69343
1972-03-22,961.671165
1972-03-23,1141.72224
1972-03-24,1079.03887
1972-03-25,949.066744
1972-03-26,1020.16235
1972-03-27,1089.61554
1972-03-28,1036.98659
1972-03-29,701.612571
1972-03-30,663.76712
1972-03-31,789.617222
1972-04-01,652.771454
1972-04-02,787.435125
1972-04-03,727.502211
1972-04-04,817.103617
1972-04-05,816.423865
1972-04-06,1185.62292
1972-04-07,1067.32499
1972-04-08,1228.18072
1972-04-09,1481.21987
1972-04-10,1653.82937
1972-04-11,1616.40088
1972-04-12,1775.64479
1972-04-13,1574.10698
1972-04-14,1289.47554
1972-04-15,1014.81684
1972-04-16,1030.84513
1972-04-17,1142.94167
1972-04-18,1344.64995
1972-04-19,1169.11416
1972-04-20,1162.07687
1972-04-21,1102.82026
1972-04-22,1047.66604
1972-04-23,1109.3524
1972-04-24,1470.94095
1972-04-25,1757.98085
1972-04-26,1716.2369
1972-04-27,1518.63889
1972-04-28,1314.08322
1972-04-29,1170.77117
1972-04-30,1490.76594
1972-05-01,1466.0892
1972-05-02,1497.57342
1972-05-03,1516.75479
1972-05-04,1829.6586
1972-05-05,2284.77874
1972-05-06,2186.57523
1972-05-07,1822.7284
1972-05-08,1928.2374
1972-05-09,1697.60968
1972-05-10,1701.50368
1972-05-11,1559.73465
1972-05-12,1457.37287
1972-05-13,1370.87217
1972-05-14,1218.42923
1972-05-15,1505.40118
1972-05-16,1864.32414
1972-05-17,2285.77797
1972-05-18,2315.97752
1972-05-19,2860.82597
1972-05-20,2728.77656
1972-05-21,3275.08877
1972-05-22,3475.63424
1972-05-23,2998.00814
1972-05-24,2963.96037
1972-05-25,2919.44006
1972-05-26,3543.39079
1972-05-27,3714.43856
1972-05-28,3880.87521
1972-05-29,4482.47002
1972-05-30,4788.13308
1972-05-31,4936.93965
1972-06-01,5445.32954
1972-06-02,5473.5299
1972-06-03,5238.2715
1972-06-04,5408.97831
1972-06-05,5457.72495
1972-06-06,5751.43276
1972-06-07,5517.67947
1972-06-08,5709.87591
1972-06-09,5736.20238
1972-06-10,5166.56457
1972-06-11,4839.50839
1972-06-12,4901.32743
1972-06-13,3821.38055
1972-06-14,3777.99092
1972-06-15,3529.22537
1972-06-16,3226.82438
1972-06-17,3316.53977
1972-06-18,3237.21052
1972-06-19,3007.88272
1972-06-20,2667.14682
1972-06-21,2700.53509
1972-06-22,2673.23868
1972-06-23,2617.05704
1972-06-24,2467.52525
1972-06-25,2302.79533
1972-06-26,2063.65474
1972-06-27,1749.33616
1972-06-28,1746.66688
1972-06-29,1655.75336
1972-06-30,1456.51643
1972-07-01,1479.91342
1972-07-02,1659.47085
1972-07-03,854.317382
1972-07-04,1159.23022
1972-07-05,1226.91883
1972-07-06,1144.76866
1972-07-07,1015.23423
1972-07-08,1057.5522
1972-07-09,725.234013
1972-07-10,940.492459
1972-07-11,964.302472
1972-07-12,846.645268
1972-07-13,791.371037
1972-07-14,724.003937
1972-07-15,692.387767
1972-07-16,647.611189
1972-07-17,752.834941
1972-07-18,655.136152
1972-07-19,882.382104
1972-07-20,521.436443
1972-07-21,783.873522
1972-07-22,778.542781
1972-07-23,751.856702
1972-07-24,804.740509
1972-07-25,999.195419
1972-07-26,1194.42418
1972-07-27,763.157132
1972-07-28,756.833505
1972-07-29,830.037913
1972-07-30,569.11752
1972-07-31,868.940071
1972-08-01,525.350507
1972-08-02,875.321673
1972-08-03,522.627685
1972-08-04,887.194216
1972-08-05,405.655279
1972-08-06,732.125875
1972-08-07,469.649839
1972-08-08,703.382633
1972-08-09,599.365817
1972-08-10,591.522364
1972-08-11,529.573398
1972-08-12,454.165198
1972-08-13,596.119195
1972-08-14,461.809094
1972-08-15,504.964608
1972-08-16,560.716111
1972-08-17,423.22124
1972-08-18,577.233304
1972-08-19,538.167993
1972-08-20,625.744792
1972-08-21,631.947055
1972-08-22,403.494968
1972-08-23,443.607755
1972-08-24,417.347898
1972-08-25,376.390637
1972-08-26,323.125381
1972-08-27,345.326177
1972-08-28,479.536116
1972-08-29,351.423231
1972-08-30,297.413665
1972-08-31,201.731913
1972-09-01,426.648493
1972-09-02,268.906812
1972-09-03,397.082809
1972-09-04,296.330555
1972-09-05,500.052303
1972-09-06,373.569284
1972-09-07,676.09884
1972-09-08,515.50368
1972-09-09,617.799546
1972-09-10,548.158586
1972-09-11,344.514753
1972-09-12,556.700069
1972-09-13,254.099429
1972-09-14,423.730639
1972-09-15,356.151828
1972-09-16,399.22438
1972-09-17,262.586784
1972-09-18,365.120794
1972-09-19,708.81209
1972-09-20,733.226217
1972-09-21,773.258751
1972-09-22,580.16359
1972-09-23,610.540021
1972-09-24,415.170816
1972-09-25,539.106105
1972-09-26,485.194086
1972-09-27,470.674236
1972-09-28,369.907057
1972-09-29,697.01697
1972-09-30,508.91289
1972-10-01,488.996386
1972-10-02,493.744184
1972-10-03,463.884106
1972-10-04,404.419972
1972-10-05,644.121901
1972-10-06,555.768419
1972-10-07,537.142242
1972-10-08,590.857999
1972-10-09,762.457133
1972-10-10,559.564996
1972-10-11,469.607835
1972-10-12,651.838265
1972-10-13,610.536082
1972-10-14,630.04012
1972-10-15,956.086802
1972-10-16,923.489193
1972-10-17,1204.71468
1972-10-18,993.630196
1972-10-19,977.521285
1972-10-20,919.620364
1972-10-21,906.281355
1972-10-22,878.447361
1972-10-23,749.073567
1972-10-24,785.117876
1972-10-25,704.650005
1972-10-26,769.39146
1972-10-27,710.715948
1972-10-28,739.002043
1972-10-29,750.266102
1972-10-30,726.319708
1972-10-31,547.584813
1972-11-01,758.549716
1972-11-02,551.958979
1972-11-03,831.229278
1972-11-04,654.531484
1972-11-05,713.188164
1972-11-06,520.393829
1972-11-07,850.797075
1972-11-08,634.32517
1972-11-09,738.517755
1972-11-10,577.286478
1972-11-11,663.052288
1972-11-12,632.882521
1972-11-13,663.762812
1972-11-14,590.793624
1972-11-15,601.336142
1972-11-16,661.135444
1972-11-17,566.459565
1972-11-18,707.788863
1972-11-19,656.085035
1972-11-20,457.172752
1972-11-21,570.751878
1972-11-22,565.682021
1972-11-23,426.913131
1972-11-24,238.494131
1972-11-25,567.866765
1972-11-26,434.041506
1972-11-27,738.769408
1972-11-28,427.7857
1972-11-29,245.7211
1972-11-30,665.562476
1972-12-01,536.051439
1972-12-02,431.79531
1972-12-03,512.332942
1972-12-04,478.490425
1972-12-05,818.257994
1972-12-06,293.817597
1972-12-07,528.704645
1972-12-08,474.773055
1972-12-09,567.988314
1972-12-10,572.076424
1972-12-11,299.17191
1972-12-12,442.766574
1972-12-13,590.959792
1972-12-14,530.927239
1972-12-15,463.133394
1972-12-16,484.794481
1972-12-17,406.52477
1972-12-18,550.120665
1972-12-19,571.492865
1972-12-20,583.78329
1972-12-21,538.095125
1972-12-22,392.071819
1972-12-23,672.780951
1972-12-24,944.440003
1972-12-25,-734.71761
1972-12-26,1187.92552
1972-12-27,462.556113
1972-12-28,405.397287
1972-12-29,365.879383
1972-12-30,691.18637
1972-12-31,359.69029
1973-01-01,541.37061
1973-01-02,241.66807
1973-01-03,361.035761
1973-01-04,553.425199
1973-01-05,459.229177
1973-01-06,533.001758
1973-01-07,419.844208
1973-01-08,328.948658
1973-01-09,506.881821
1973-01-10,464.94586
1973-01-11,474.764069
1973-01-12,370.577516
1973-01-13,437.299144
1973-01-14,536.544713
1973-01-15,370.108182
1973-01-16,489.618902
1973-01-17,646.730497
1973-01-18,1090.52011
1973-01-19,1443.17915
1973-01-20,437.337732
1973-01-21,349.509803
1973-01-22,191.369903
1973-01-23,57.8362387
1973-01-24,156.352329
1973-01-25,38.5613902
1973-01-26,108.989926
1973-01-27,279.857889
1973-01-28,247.668254
1973-01-29,335.718786
1973-01-30,373.737452
1973-01-31,366.961385
1973-02-01,429.369776
1973-02-02,361.77161
1973-02-03,388.510186
1973-02-04,426.728254
1973-02-05,429.45526
1973-02-06,474.725789
1973-02-07,430.926065
1973-02-08,400.928006
1973-02-09,470.200164
1973-02-10,463.818008
1973-02-11,429.375715
1973-02-12,472.295823
1973-02-13,600.99482
1973-02-14,239.83391
1973-02-15,421.573897
1973-02-16,307.198579
1973-02-17,349.607012
1973-02-18,421.460841
1973-02-19,383.017369
1973-02-20,398.821545
1973-02-21,395.938494
1973-02-22,309.735661
1973-02-23,452.404521
1973-02-24,401.969143
1973-02-25,435.333834
1973-02-26,426.984707
1973-02-27,457.288424
1973-02-28,469.149211
1973-03-01,496.777802
1973-03-02,407.472853
1973-03-03,456.043854
1973-03-04,434.711503
1973-03-05,561.615636
1973-03-06,457.267006
1973-03-07,442.03291
1973-03-08,419.185289
1973-03-09,543.275638
1973-03-10,476.046181
1973-03-11,631.019467
1973-03-12,382.68934
1973-03-13,500.121078
1973-03-14,522.305503
1973-03-15,483.866031
1973-03-16,517.019627
1973-03-17,461.589814
1973-03-18,554.870371
1973-03-19,531.91871
1973-03-20,570.361198
1973-03-21,766.886934
1973-03-22,484.085158
1973-03-23,515.186698
1973-03-24,591.97705
1973-03-25,536.71162
1973-03-26,564.734738
1973-03-27,544.878362
1973-03-28,651.406597
1973-03-29,651.250768
1973-03-30,535.638111
1973-03-31,524.221855
1973-04-01,564.39077
1973-04-02,592.634461
1973-04-03,419.278035
1973-04-04,591.141716
1973-04-05,503.627938
1973-04-06,627.08934
1973-04-07,846.23594
1973-04-08,465.244101
1973-04-09,485.229412
1973-04-10,685.422176
1973-04-11,499.872718
1973-04-12,875.678381
1973-04-13,697.143197
1973-04-14,1016.33907
1973-04-15,937.974024
1973-04-16,709.531476
1973-04-17,851.409683
1973-04-18,1070.32279
1973-04-19,813.168013
1973-04-20,689.233523
1973-04-21,742.340119
1973-04-22,734.081861
1973-04-23,896.001875
1973-04-24,1017.74177
1973-04-25,1013.01047
1973-04-26,1156.40548
1973-04-27,1215.58799
1973-04-28,1484.58546
1973-04-29,1810.50653
1973-04-30,1939.01053
1973-05-01,1717.77759
1973-05-02,1514.93149
1973-05-03,1366.04307
1973-05-04,1645.97786
1973-05-05,2055.66537
1973-05-06,2052.21202
1973-05-07,2055.16169
1973-05-08,1979.35509
1973-05-09,2253.40444
1973-05-10,3050.85434
1973-05-11,4470.63096
1973-05-12,5129.32564
1973-05-13,5370.15696
1973-05-14,5213.8061
1973-05-15,5158.9873
1973-05-16,5112.73391
1973-05-17,5372.7349
1973-05-18,5491.03887
1973-05-19,6623.35364
1973-05-20,7144.98481
1973-05-21,7066.07677
1973-05-22,6251.53343
1973-05-23,5209.36264
1973-05-24,5102.6555
1973-05-25,4822.29877
1973-05-26,5578.53351
1973-05-27,4859.28119
1973-05-28,3951.58734
1973-05-29,3662.16963
1973-05-30,3722.8479
1973-05-31,3797.10028
1973-06-01,4196.7319
1973-06-02,4637.80663
1973-06-03,4786.38524
1973-06-04,4491.06843
1973-06-05,4123.25546
1973-06-06,3957.44976
1973-06-07,3889.98542
1973-06-08,4575.58829
1973-06-09,6098.97073
1973-06-10,8210.83816
1973-06-11,9514.03797
1973-06-12,9397.28294
1973-06-13,9087.20448
1973-06-14,9954.74689
1973-06-15,8760.48457
1973-06-16,7579.53935
1973-06-17,6140.9766
1973-06-18,5329.97376
1973-06-19,5275.32433
1973-06-20,4546.5977
1973-06-21,5020.94106
1973-06-22,4921.2056
1973-06-23,5363.77166
1973-06-24,5840.11445
1973-06-25,5708.13348
1973-06-26,6194.40009
1973-06-27,6675.42316
1973-06-28,7101.6491
1973-06-29,6718.15575
1973-06-30,6646.09925
1973-07-01,5696.91232
1973-07-02,5422.60657
1973-07-03,4750.80749
1973-07-04,4721.75684
1973-07-05,4224.85102
1973-07-06,3962.98132
1973-07-07,3494.89771
1973-07-08,3418.98709
1973-07-09,3446.02797
1973-07-10,3293.99799
1973-07-11,3253.84877
1973-07-12,3340.66938
1973-07-13,3362.80989
1973-07-14,3677.25304
1973-07-15,3069.05925
1973-07-16,2636.24641
1973-07-17,2662.83482
1973-07-18,2539.3464
1973-07-19,2866.65836
1973-07-20,2940.62763
1973-07-21,3361.02586
1973-07-22,2560.37371
1973-07-23,2305.79276
1973-07-24,2044.56508
1973-07-25,1933.36979
1973-07-26,1684.96969
1973-07-27,1639.34393
1973-07-28,1553.88577
1973-07-29,1691.61642
1973-07-30,1634.85431
1973-07-31,1527.8312
1973-08-01,1642.83629
1973-08-02,1489.11939
1973-08-03,1426.23392
1973-08-04,1499.23991
1973-08-05,1565.29822
1973-08-06,1666.6108
1973-08-07,1790.5955
1973-08-08,1417.90408
1973-08-09,1382.02613
1973-08-10,1184.90483
1973-08-11,1403.93486
1973-08-12,899.581018
1973-08-13,1004.22004
1973-08-14,1088.17099
1973-08-15,613.891759
1973-08-16,875.291517
1973-08-17,1135.61992
1973-08-18,1016.1721
1973-08-19,855.820775
1973-08-20,1044.60694
1973-08-21,1393.01416
1973-08-22,966.715482
1973-08-23,1110.63879
1973-08-24,832.607429
1973-08-25,898.475198
1973-08-26,929.446635
1973-08-27,1156.81278
1973-08-28,885.9835869999999
1973-08-29,825.701104
1973-08-30,840.18772
1973-08-31,990.164663
1973-09-01,632.219387
1973-09-02,1049.11244
1973-09-03,796.897118
1973-09-04,668.550306
1973-09-05,529.049906
1973-09-06,625.76504
1973-09-07,703.328966
1973-09-08,515.094844
1973-09-09,470.474219
1973-09-10,759.991257
1973-09-11,858.202767
1973-09-12,825.78942
1973-09-13,730.596573
1973-09-14,502.960249
1973-09-15,593.324675
1973-09-16,652.571437
1973-09-17,432.055548
1973-09-18,586.663172
1973-09-19,356.251652
1973-09-20,635.729723
1973-09-21,445.987378
1973-09-22,459.213422
1973-09-23,374.26239
1973-09-24,539.685294
1973-09-25,367.322032
1973-09-26,592.73447
1973-09-27,487.49244
1973-09-28,422.298575
1973-09-29,524.308939
1973-09-30,592.632861
1973-10-01,455.020318
1973-10-02,503.474786
1973-10-03,323.058268
1973-10-04,441.435627
1973-10-05,460.21914
1973-10-06,470.203518
1973-10-07,526.513808
1973-10-08,457.554508
1973-10-09,537.103162
1973-10-10,598.140972
1973-10-11,536.580593
1973-10-12,478.862026
1973-10-13,521.599103
1973-10-14,436.813255
1973-10-15,672.561794
1973-10-16,516.632517
1973-10-17,566.550773
1973-10-18,549.787467
1973-10-19,435.90253
1973-10-20,499.111883
1973-10-21,465.283643
1973-10-22,545.52248
1973-10-23,327.58777
1973-10-24,474.37065
1973-10-25,480.971071
1973-10-26,349.392408
1973-10-27,356.29264
1973-10-28,404.82176
1973-10-29,495.959731
1973-10-30,368.677812
1973-10-31,481.311347
1973-11-01,288.749248
1973-11-02,519.956252
1973-11-03,148.017957
1973-11-04,385.50817
1973-11-05,467.470511
1973-11-06,680.194151
1973-11-07,307.005823
1973-11-08,657.899716
1973-11-09,188.308344
1973-11-10,359.591328
1973-11-11,552.161212
1973-11-12,245.398548
1973-11-13,446.861084
1973-11-14,283.165839
1973-11-15,486.429332
1973-11-16,163.755066
1973-11-17,448.661118
1973-11-18,462.874356
1973-11-19,458.715902
1973-11-20,635.716553
1973-11-21,388.726174
1973-11-22,594.36932
1973-11-23,368.905247
1973-11-24,483.220437
1973-11-25,571.43483
1973-11-26,436.785714
1973-11-27,402.75795
1973-11-28,386.778558
1973-11-29,367.077795
1973-11-30,508.220645